Anniston, AL

3:22 PM CDT on September 22, 2019 (GMT -0500)
Anniston Metro

Weather History for KANB - August, 2019

Change the Weather History Date:

Saturday, August 24, 2019

  Actual Average Record
Temperature  
Mean Temperature 82 °F 79 °F  
Max Temperature 93 °F 89 °F 103 °F (1983)
Min Temperature 70 °F 69 °F 54 °F (1931)
Cooling Degree Days 16    
Growing Degree Days 31 (Base 50)    
Moisture  
Dew Point 70 °F    
Average Humidity 71    
Maximum Humidity 93    
Minimum Humidity 49    
Precipitation  
Precipitation T in 0.10 in 5.57 in (1967)
Month to date precipitation 1.81 2.60  
Year to date precipitation 37.71 34.23  
Sea Level Pressure  
Sea Level Pressure 29.99 in    
Wind  
Wind Speed 3 mph (ESE)    
Max Wind Speed 17 mph    
Max Gust Speed 20 mph    
Visibility 10 miles    
Events Thunderstorm    
T = Trace of Precipitation, MM = Missing Value Source: NWS Daily Summary

Daily Weather History Graph

Daily Weather History Graph

Search for Another Location

Airport or City:

Astronomy

Aug. 24, 2019 Rise Set
Actual Time 6:11 AM CDT 7:19 PM CDT
Civil Twilight 5:46 AM CDT 7:45 PM CDT
Nautical Twilight 5:15 AM CDT 8:15 PM CDT
Astronomical Twilight 4:43 AM CDT 8:47 PM CDT
Moon 12:10 AM CDT (8/24) 2:26 PM CDT (8/24)
Length of Visible Light 13h 59m
Length of Day
13h 07m
Last Quarter, 39% of the Moon is Illuminated
Aug 24
Last Quarter
Aug 30
New
Sep 5
First Quarter
Sep 13
Full
Sep 21
Last Quarter

Hourly Weather History & Observations

Time (CDT) Temp. Heat Index Dew Point Humidity Pressure Visibility Wind Dir Wind Speed Gust Speed Precip Events Conditions
12:53 AM 73.9 °F - 71.1 °F 91% 30.01 in 10.0 mi Calm Calm - N/A   Partly Cloudy
1:53 AM 72.0 °F - 70.0 °F 93% 30.00 in 10.0 mi Calm Calm - N/A   Clear
2:53 AM 71.1 °F - 70.0 °F 96% 29.99 in 10.0 mi Calm Calm - N/A   Clear
3:53 AM 72.0 °F - 70.0 °F 93% 29.99 in 10.0 mi Calm Calm - N/A   Clear
4:53 AM 71.1 °F - 69.1 °F 93% 30.01 in 10.0 mi Calm Calm - N/A   Clear
5:53 AM 71.1 °F - 69.1 °F 93% 30.01 in 10.0 mi Calm Calm - N/A   Clear
6:11 AM 71.1 °F - 69.1 °F 93% 30.04 in 10.0 mi ENE 3.5 mph - N/A   Partly Cloudy
6:53 AM 71.1 °F - 69.1 °F 93% 30.02 in 10.0 mi Calm Calm - N/A   Clear
7:53 AM 73.0 °F - 71.1 °F 93% 30.04 in 10.0 mi ENE 3.5 mph - N/A   Clear
8:53 AM 79.0 °F - 73.0 °F 82% 30.04 in 10.0 mi Calm Calm - N/A   Clear
10:53 AM 86.0 °F 92.2 °F 72.0 °F 63% 30.02 in 10.0 mi Calm Calm - N/A   Clear
11:53 AM 88.0 °F 93.8 °F 71.1 °F 57% 30.00 in 10.0 mi ESE 4.6 mph - N/A   Mostly Cloudy
12:53 PM 91.0 °F 96.6 °F 70.0 °F 50% 29.98 in 10.0 mi Variable 3.5 mph - N/A   Partly Cloudy
1:53 PM 91.9 °F 97.4 °F 70.0 °F 48% 29.96 in 10.0 mi Variable 3.5 mph - N/A   Scattered Clouds
2:53 PM 91.0 °F 97.6 °F 71.1 °F 52% 29.93 in 10.0 mi SSE 6.9 mph - N/A   Clear
3:53 PM 91.0 °F 95.6 °F 69.1 °F 48% 29.92 in 10.0 mi Variable 3.5 mph - N/A   Clear
4:14 PM 90.0 °F 94.5 °F 69.1 °F 50% 29.95 in 10.0 mi SW 3.5 mph - N/A Thunderstorm Partly Cloudy
4:53 PM 86.0 °F 90.7 °F 70.0 °F 59% 29.93 in 10.0 mi WSW 15.0 mph - N/A   Clear
5:53 PM 79.0 °F - 69.1 °F 72% 29.96 in 10.0 mi West 4.6 mph - N/A   Scattered Clouds
6:27 PM 79.0 °F - 70.0 °F 74% 29.99 in 10.0 mi WSW 5.8 mph - N/A Thunderstorm Partly Cloudy
6:42 PM 78.1 °F - 70.0 °F 76% 29.99 in 10.0 mi SSW 5.8 mph - N/A   Clear
6:53 PM 78.1 °F - 70.0 °F 76% 29.96 in 10.0 mi Calm Calm - N/A   Partly Cloudy
7:53 PM 77.0 °F - 71.1 °F 82% 29.99 in 10.0 mi Calm Calm - 0.00 in   Partly Cloudy
8:53 PM 75.9 °F - 69.1 °F 79% 30.01 in 10.0 mi ENE 8.1 mph - N/A   Scattered Clouds
9:53 PM 75.0 °F - 70.0 °F 84% 30.03 in 10.0 mi ENE 5.8 mph - N/A   Partly Cloudy
10:53 PM 75.0 °F - 70.0 °F 84% 30.01 in 10.0 mi ENE 4.6 mph - N/A   Clear
11:53 PM 75.0 °F - 70.0 °F 84% 30.00 in 10.0 mi NE 8.1 mph - N/A   Clear